Time,TemperatureF,DewpointF,PressureIn,WindDirection,WindDirectionDegrees,WindSpeedMPH,WindSpeedGustMPH,Humidity,HourlyPrecipIn,Conditions,Clouds,dailyrainin,SoftwareType,DateUTC
2013-02-20 00:04:00,64.9,62.8,30.18,SE,130,4.0,16.0,93,0.12,,,0.40,Wunderground v.1.15,2013-02-20 10:04:00,
2013-02-20 00:10:00,64.8,63.0,30.18,SE,128,2.0,2.0,94,0.06,,,0.40,Wunderground v.1.15,2013-02-20 10:10:00,
2013-02-20 00:15:00,64.8,63.0,30.18,SSE,157,3.0,16.0,94,1.67,,,0.44,Wunderground v.1.15,2013-02-20 10:15:00,
2013-02-20 00:21:00,64.7,62.9,30.18,SE,142,5.0,8.0,94,0.13,,,0.45,Wunderground v.1.15,2013-02-20 10:21:00,
2013-02-20 00:26:00,64.4,62.6,30.18,ESE,111,6.0,12.0,94,0.06,,,0.45,Wunderground v.1.15,2013-02-20 10:26:00,
2013-02-20 00:32:00,64.3,62.5,30.18,SE,139,5.0,13.0,94,0.20,,,0.48,Wunderground v.1.15,2013-02-20 10:32:00,
2013-02-20 00:38:00,64.2,62.4,30.18,South,173,3.0,13.0,94,0.07,,,0.48,Wunderground v.1.15,2013-02-20 10:38:00,
2013-02-20 00:43:00,64.2,62.7,30.18,SSE,148,4.0,13.0,95,0.04,,,0.48,Wunderground v.1.15,2013-02-20 10:43:00,
2013-02-20 00:49:00,64.3,62.8,30.18,SSE,147,7.0,15.0,95,0.00,,,0.48,Wunderground v.1.15,2013-02-20 10:49:00,
2013-02-20 00:55:00,64.3,62.8,30.17,SSE,149,6.0,15.0,95,0.00,,,0.48,Wunderground v.1.15,2013-02-20 10:55:00,
2013-02-20 01:00:00,64.4,62.9,30.17,SE,144,5.0,15.0,95,0.00,,,0.48,Wunderground v.1.15,2013-02-20 11:00:00,
2013-02-20 01:05:00,64.5,63.0,30.17,SE,141,5.0,15.0,95,0.00,,,0.00,Wunderground v.1.15,2013-02-20 11:05:00,
2013-02-20 01:11:00,64.6,63.1,30.17,ENE,65,5.0,11.0,95,0.00,,,0.00,Wunderground v.1.15,2013-02-20 11:11:00,
2013-02-20 01:16:00,64.7,62.9,30.16,East,93,6.0,17.0,94,0.00,,,0.00,Wunderground v.1.15,2013-02-20 11:16:00,
2013-02-20 01:22:00,64.9,63.1,30.16,SE,128,5.0,17.0,94,0.00,,,0.00,Wunderground v.1.15,2013-02-20 11:22:00,
2013-02-20 01:28:00,64.9,63.1,30.16,South,183,5.0,17.0,94,0.00,,,0.00,Wunderground v.1.15,2013-02-20 11:28:00,
2013-02-20 01:33:00,64.9,63.1,30.16,SSE,148,7.0,16.0,94,0.00,,,0.00,Wunderground v.1.15,2013-02-20 11:33:00,
2013-02-20 01:39:00,64.9,63.1,30.16,SE,139,6.0,16.0,94,0.00,,,0.00,Wunderground v.1.15,2013-02-20 11:39:00,
2013-02-20 01:45:00,65.0,63.2,30.16,SSE,167,6.0,16.0,94,0.00,,,0.00,Wunderground v.1.15,2013-02-20 11:45:00,
2013-02-20 01:50:00,65.0,63.2,30.15,SSE,154,7.0,13.0,94,0.00,,,0.00,Wunderground v.1.15,2013-02-20 11:50:00,
2013-02-20 01:56:00,65.0,63.2,30.15,SSE,160,6.0,13.0,94,0.00,,,0.00,Wunderground v.1.15,2013-02-20 11:56:00,
2013-02-20 02:02:00,65.0,63.2,30.14,SE,130,4.0,17.0,94,0.33,,,0.02,Wunderground v.1.15,2013-02-20 12:02:00,
2013-02-20 02:08:00,65.1,63.6,30.14,SE,142,5.0,17.0,95,0.11,,,0.03,Wunderground v.1.15,2013-02-20 12:08:00,
2013-02-20 02:13:00,65.1,63.6,30.14,SE,131,5.0,17.0,95,0.08,,,0.03,Wunderground v.1.15,2013-02-20 12:13:00,
2013-02-20 02:19:00,65.2,63.7,30.14,SE,138,6.0,18.0,95,0.05,,,0.03,Wunderground v.1.15,2013-02-20 12:19:00,
2013-02-20 02:24:00,65.1,63.6,30.14,SE,126,5.0,18.0,95,0.00,,,0.03,Wunderground v.1.15,2013-02-20 12:24:00,
2013-02-20 02:30:00,65.0,63.5,30.14,SE,127,5.0,18.0,95,0.00,,,0.03,Wunderground v.1.15,2013-02-20 12:30:00,
2013-02-20 02:36:00,64.8,63.3,30.14,SE,146,6.0,18.0,95,0.00,,,0.03,Wunderground v.1.15,2013-02-20 12:36:00,
2013-02-20 02:41:00,64.7,63.2,30.14,SE,132,4.0,14.0,95,0.35,,,0.05,Wunderground v.1.15,2013-02-20 12:41:00,
2013-02-20 02:47:00,64.7,63.2,30.14,SE,135,5.0,14.0,95,0.14,,,0.06,Wunderground v.1.15,2013-02-20 12:47:00,
2013-02-20 02:53:00,64.7,63.2,30.14,SE,138,5.0,13.0,95,0.06,,,0.06,Wunderground v.1.15,2013-02-20 12:53:00,
2013-02-20 02:58:00,64.8,63.3,30.14,East,99,4.0,13.0,95,0.04,,,0.06,Wunderground v.1.15,2013-02-20 12:58:00,
2013-02-20 03:03:00,65.0,63.8,30.14,SE,140,4.0,13.0,96,0.00,,,0.06,Wunderground v.1.15,2013-02-20 13:03:00,
2013-02-20 03:09:00,65.0,63.8,30.14,SE,146,4.0,13.0,96,0.00,,,0.06,Wunderground v.1.15,2013-02-20 13:09:00,
2013-02-20 03:14:00,65.0,63.8,30.14,SE,146,2.0,11.0,96,0.00,,,0.06,Wunderground v.1.15,2013-02-20 13:14:00,
2013-02-20 03:20:00,65.1,63.9,30.14,East,88,1.0,8.0,96,0.00,,,0.06,Wunderground v.1.15,2013-02-20 13:20:00,
2013-02-20 03:25:00,65.2,64.0,30.13,East,90,2.0,8.0,96,0.00,,,0.06,Wunderground v.1.15,2013-02-20 13:25:00,
2013-02-20 03:31:00,65.3,64.1,30.14,East,82,3.0,8.0,96,0.00,,,0.06,Wunderground v.1.15,2013-02-20 13:31:00,
2013-02-20 03:37:00,65.2,63.7,30.14,ENE,69,4.0,12.0,95,0.24,,,0.08,Wunderground v.1.15,2013-02-20 13:37:00,
2013-02-20 03:42:00,64.7,63.2,30.14,SE,138,5.0,12.0,95,0.08,,,0.08,Wunderground v.1.15,2013-02-20 13:42:00,
2013-02-20 03:48:00,64.7,63.2,30.13,ESE,121,5.0,15.0,95,0.04,,,0.08,Wunderground v.1.15,2013-02-20 13:48:00,
2013-02-20 03:54:00,64.7,63.2,30.14,ESE,120,5.0,15.0,95,0.00,,,0.08,Wunderground v.1.15,2013-02-20 13:54:00,
2013-02-20 03:59:00,64.7,63.2,30.14,SE,144,5.0,15.0,95,0.00,,,0.08,Wunderground v.1.15,2013-02-20 13:59:00,
2013-02-20 04:04:00,64.7,63.2,30.14,ESE,122,5.0,12.0,95,0.00,,,0.08,Wunderground v.1.15,2013-02-20 14:04:00,
2013-02-20 04:10:00,64.8,63.3,30.14,ESE,103,5.0,12.0,95,0.00,,,0.08,Wunderground v.1.15,2013-02-20 14:10:00,
2013-02-20 04:15:00,64.8,63.3,30.13,SE,146,5.0,12.0,95,0.00,,,0.08,Wunderground v.1.15,2013-02-20 14:15:00,
2013-02-20 04:21:00,64.9,63.4,30.14,ESE,121,6.0,7.0,95,0.00,,,0.08,Wunderground v.1.15,2013-02-20 14:21:00,
2013-02-20 04:27:00,64.8,63.3,30.14,ESE,116,7.0,15.0,95,0.00,,,0.08,Wunderground v.1.15,2013-02-20 14:27:00,
2013-02-20 04:32:00,64.9,63.4,30.14,SE,127,5.0,14.0,95,0.00,,,0.08,Wunderground v.1.15,2013-02-20 14:32:00,
2013-02-20 04:38:00,65.0,63.5,30.14,SE,138,5.0,14.0,95,0.00,,,0.08,Wunderground v.1.15,2013-02-20 14:38:00,
2013-02-20 04:44:00,65.0,63.5,30.14,SSE,157,5.0,14.0,95,0.00,,,0.09,Wunderground v.1.15,2013-02-20 14:44:00,
2013-02-20 04:49:00,65.1,63.6,30.14,SE,145,6.0,14.0,95,0.00,,,0.09,Wunderground v.1.15,2013-02-20 14:49:00,
2013-02-20 04:55:00,65.2,63.7,30.14,SSE,157,7.0,14.0,95,0.00,,,0.09,Wunderground v.1.15,2013-02-20 14:55:00,
2013-02-20 05:00:00,65.2,63.7,30.14,SE,131,5.0,12.0,95,0.50,,,0.12,Wunderground v.1.15,2013-02-20 15:00:00,
2013-02-20 05:05:00,65.1,63.6,30.14,ESE,117,6.0,14.0,95,0.14,,,0.13,Wunderground v.1.15,2013-02-20 15:05:00,
2013-02-20 05:11:00,65.1,63.6,30.14,SE,142,5.0,14.0,95,0.06,,,0.13,Wunderground v.1.15,2013-02-20 15:11:00,
2013-02-20 05:16:00,65.1,63.6,30.14,SE,142,4.0,14.0,95,0.04,,,0.13,Wunderground v.1.15,2013-02-20 15:16:00,
2013-02-20 05:22:00,65.2,64.0,30.14,SSE,148,5.0,13.0,96,0.74,,,0.18,Wunderground v.1.15,2013-02-20 15:22:00,
2013-02-20 05:28:00,65.1,63.9,30.14,SSE,153,6.0,13.0,96,0.18,,,0.19,Wunderground v.1.15,2013-02-20 15:28:00,
2013-02-20 05:33:00,65.1,63.9,30.14,SE,146,5.0,19.0,96,0.07,,,0.19,Wunderground v.1.15,2013-02-20 15:33:00,
2013-02-20 05:39:00,65.2,64.0,30.15,SSE,166,3.0,19.0,96,0.04,,,0.19,Wunderground v.1.15,2013-02-20 15:39:00,
2013-02-20 05:45:00,65.2,64.0,30.15,East,99,3.0,19.0,96,0.00,,,0.19,Wunderground v.1.15,2013-02-20 15:45:00,
2013-02-20 05:50:00,65.2,64.0,30.15,ESE,123,4.0,9.0,96,0.00,,,0.19,Wunderground v.1.15,2013-02-20 15:50:00,
2013-02-20 05:56:00,65.3,64.1,30.15,SSE,150,5.0,9.0,96,0.00,,,0.19,Wunderground v.1.15,2013-02-20 15:56:00,
2013-02-20 06:02:00,65.2,64.0,30.15,ESE,105,5.0,11.0,96,0.00,,,0.19,Wunderground v.1.15,2013-02-20 16:02:00,
2013-02-20 06:07:00,65.1,63.9,30.16,East,100,5.0,11.0,96,0.00,,,0.19,Wunderground v.1.15,2013-02-20 16:07:00,
2013-02-20 06:13:00,65.1,63.6,30.16,SE,138,5.0,11.0,95,0.00,,,0.19,Wunderground v.1.15,2013-02-20 16:13:00,
2013-02-20 06:19:00,65.2,63.7,30.16,East,95,5.0,14.0,95,0.00,,,0.19,Wunderground v.1.15,2013-02-20 16:19:00,
2013-02-20 06:24:00,65.2,63.7,30.16,East,94,4.0,14.0,95,0.00,,,0.19,Wunderground v.1.15,2013-02-20 16:24:00,
2013-02-20 06:30:00,65.2,63.7,30.16,SSE,149,4.0,14.0,95,0.00,,,0.19,Wunderground v.1.15,2013-02-20 16:30:00,
2013-02-20 06:36:00,65.3,63.8,30.17,SE,139,4.0,14.0,95,0.00,,,0.19,Wunderground v.1.15,2013-02-20 16:36:00,
2013-02-20 06:41:00,65.4,63.9,30.17,SE,129,4.0,11.0,95,0.00,,,0.19,Wunderground v.1.15,2013-02-20 16:41:00,
2013-02-20 06:46:00,65.5,64.0,30.17,ESE,121,4.0,11.0,95,0.00,,,0.19,Wunderground v.1.15,2013-02-20 16:46:00,
2013-02-20 06:52:00,65.5,64.0,30.17,East,92,4.0,10.0,95,0.00,,,0.19,Wunderground v.1.15,2013-02-20 16:52:00,
2013-02-20 06:57:00,65.3,63.5,30.18,ESE,115,6.0,19.0,94,0.33,,,0.26,Wunderground v.1.15,2013-02-20 16:57:00,
2013-02-20 07:03:00,64.9,63.1,30.18,SE,144,7.0,22.0,94,0.07,,,0.26,Wunderground v.1.15,2013-02-20 17:03:00,
2013-02-20 07:09:00,64.7,63.2,30.18,SSE,157,7.0,22.0,95,0.04,,,0.26,Wunderground v.1.15,2013-02-20 17:09:00,
2013-02-20 07:14:00,64.8,63.3,30.18,South,169,7.0,22.0,95,0.00,,,0.26,Wunderground v.1.15,2013-02-20 17:14:00,
2013-02-20 07:20:00,64.9,63.4,30.18,NNE,30,7.0,7.0,95,1.27,,,0.28,Wunderground v.1.15,2013-02-20 17:20:00,
2013-02-20 07:25:00,64.5,62.7,30.18,ENE,75,7.0,14.0,94,0.22,,,0.32,Wunderground v.1.15,2013-02-20 17:25:00,
2013-02-20 07:31:00,64.5,63.0,30.18,SSE,152,6.0,21.0,95,0.07,,,0.32,Wunderground v.1.15,2013-02-20 17:31:00,
2013-02-20 07:37:00,64.5,63.0,30.19,SE,134,6.0,21.0,95,0.04,,,0.32,Wunderground v.1.15,2013-02-20 17:37:00,
2013-02-20 07:42:00,64.5,63.3,30.19,South,179,5.0,21.0,96,0.00,,,0.32,Wunderground v.1.15,2013-02-20 17:42:00,
2013-02-20 07:48:00,64.6,63.1,30.19,South,171,3.0,21.0,95,0.00,,,0.32,Wunderground v.1.15,2013-02-20 17:48:00,
2013-02-20 07:54:00,64.7,63.5,30.19,SSE,158,2.0,12.0,96,0.00,,,0.32,Wunderground v.1.15,2013-02-20 17:54:00,
2013-02-20 07:59:00,64.8,63.6,30.19,ENE,67,5.0,12.0,96,0.32,,,0.34,Wunderground v.1.15,2013-02-20 17:59:00,
2013-02-20 08:04:00,64.7,63.5,30.20,SE,143,6.0,15.0,96,0.09,,,0.34,Wunderground v.1.15,2013-02-20 18:04:00,
2013-02-20 08:10:00,64.8,63.6,30.20,SE,138,6.0,15.0,96,0.05,,,0.34,Wunderground v.1.15,2013-02-20 18:10:00,
2013-02-20 08:15:00,64.9,63.7,30.20,South,172,6.0,15.0,96,0.00,,,0.34,Wunderground v.1.15,2013-02-20 18:15:00,
2013-02-20 08:21:00,65.1,63.9,30.20,SSE,165,5.0,6.0,96,0.00,,,0.34,Wunderground v.1.15,2013-02-20 18:21:00,
2013-02-20 08:26:00,65.2,64.0,30.20,SE,138,4.0,13.0,96,0.00,,,0.34,Wunderground v.1.15,2013-02-20 18:26:00,
2013-02-20 08:32:00,65.6,64.4,30.20,SE,139,4.0,13.0,96,0.00,,,0.34,Wunderground v.1.15,2013-02-20 18:32:00,
2013-02-20 08:38:00,66.0,65.1,30.20,East,80,3.0,13.0,97,0.00,,,0.34,Wunderground v.1.15,2013-02-20 18:38:00,
2013-02-20 08:43:00,66.3,65.1,30.20,East,90,4.0,10.0,96,0.00,,,0.34,Wunderground v.1.15,2013-02-20 18:43:00,
2013-02-20 08:49:00,66.5,65.3,30.21,East,92,5.0,13.0,96,0.00,,,0.34,Wunderground v.1.15,2013-02-20 18:49:00,
2013-02-20 08:55:00,66.8,65.6,30.21,SE,130,3.0,13.0,96,0.00,,,0.34,Wunderground v.1.15,2013-02-20 18:55:00,
2013-02-20 09:00:00,67.0,65.8,30.21,ESE,107,3.0,13.0,96,0.00,,,0.34,Wunderground v.1.15,2013-02-20 19:00:00,
2013-02-20 09:05:00,67.1,65.6,30.21,East,86,4.0,14.0,95,0.00,,,0.34,Wunderground v.1.15,2013-02-20 19:05:00,
2013-02-20 09:11:00,67.2,65.4,30.21,East,92,3.0,14.0,94,0.00,,,0.34,Wunderground v.1.15,2013-02-20 19:11:00,
2013-02-20 09:16:00,67.3,65.5,30.21,SE,134,3.0,14.0,94,0.00,,,0.34,Wunderground v.1.15,2013-02-20 19:16:00,
2013-02-20 09:22:00,67.5,66.0,30.21,SE,138,3.0,13.0,95,0.00,,,0.34,Wunderground v.1.15,2013-02-20 19:22:00,
2013-02-20 09:27:00,67.7,65.9,30.21,SE,132,3.0,13.0,94,0.00,,,0.34,Wunderground v.1.15,2013-02-20 19:27:00,
2013-02-20 09:33:00,68.1,66.3,30.21,East,96,3.0,11.0,94,0.00,,,0.34,Wunderground v.1.15,2013-02-20 19:33:00,
2013-02-20 09:39:00,68.2,66.1,30.21,East,91,4.0,11.0,93,0.00,,,0.34,Wunderground v.1.15,2013-02-20 19:39:00,
2013-02-20 09:44:00,68.1,66.0,30.21,East,88,5.0,15.0,93,0.00,,,0.34,Wunderground v.1.15,2013-02-20 19:44:00,
2013-02-20 09:50:00,68.3,65.9,30.21,ESE,111,7.0,7.0,92,0.00,,,0.34,Wunderground v.1.15,2013-02-20 19:50:00,
2013-02-20 09:56:00,68.3,65.9,30.21,East,90,6.0,20.0,92,0.00,,,0.34,Wunderground v.1.15,2013-02-20 19:56:00,
2013-02-20 10:01:00,68.4,65.7,30.21,East,83,6.0,20.0,91,0.00,,,0.34,Wunderground v.1.15,2013-02-20 20:01:00,
2013-02-20 10:07:00,68.7,66.3,30.22,ENE,61,6.0,20.0,92,0.00,,,0.34,Wunderground v.1.15,2013-02-20 20:07:00,
2013-02-20 10:13:00,69.4,66.3,30.22,NE,41,5.0,17.0,90,0.00,,,0.34,Wunderground v.1.15,2013-02-20 20:13:00,
2013-02-20 10:19:00,69.5,65.8,30.21,SSE,166,7.0,18.0,88,0.00,,,0.34,Wunderground v.1.15,2013-02-20 20:19:00,
2013-02-20 10:24:00,69.5,66.1,30.21,ENE,74,6.0,18.0,89,0.00,,,0.34,Wunderground v.1.15,2013-02-20 20:24:00,
2013-02-20 10:30:00,69.4,66.0,30.22,ENE,75,4.0,18.0,89,0.00,,,0.34,Wunderground v.1.15,2013-02-20 20:30:00,
2013-02-20 10:36:00,69.1,65.7,30.21,ENE,74,4.0,18.0,89,0.00,,,0.34,Wunderground v.1.15,2013-02-20 20:36:00,
2013-02-20 10:41:00,69.4,66.0,30.21,ESE,105,4.0,16.0,89,0.00,,,0.34,Wunderground v.1.15,2013-02-20 20:41:00,
2013-02-20 10:47:00,69.4,65.7,30.21,ESE,103,6.0,18.0,88,0.00,,,0.34,Wunderground v.1.15,2013-02-20 20:47:00,
2013-02-20 10:52:00,69.8,66.1,30.21,SE,130,6.0,18.0,88,0.00,,,0.34,Wunderground v.1.15,2013-02-20 20:52:00,
2013-02-20 10:58:00,69.9,65.5,30.21,ENE,72,6.0,18.0,86,0.00,,,0.34,Wunderground v.1.15,2013-02-20 20:58:00,
2013-02-20 11:03:00,69.9,65.9,30.21,East,90,6.0,20.0,87,0.00,,,0.34,Wunderground v.1.15,2013-02-20 21:03:00,
2013-02-20 11:09:00,70.1,65.7,30.21,ESE,103,6.0,20.0,86,0.00,,,0.34,Wunderground v.1.15,2013-02-20 21:09:00,
2013-02-20 11:15:00,70.2,66.1,30.21,ENE,69,7.0,20.0,87,0.00,,,0.34,Wunderground v.1.15,2013-02-20 21:15:00,
2013-02-20 11:21:00,70.5,65.4,30.21,East,98,7.0,20.0,84,0.00,,,0.34,Wunderground v.1.15,2013-02-20 21:21:00,
2013-02-20 11:26:00,70.9,66.5,30.21,SE,134,7.0,20.0,86,0.00,,,0.34,Wunderground v.1.15,2013-02-20 21:26:00,
2013-02-20 11:32:00,71.4,66.3,30.21,ESE,113,6.0,25.0,84,0.00,,,0.34,Wunderground v.1.15,2013-02-20 21:32:00,
2013-02-20 11:38:00,71.2,65.4,30.20,East,90,8.0,25.0,82,0.00,,,0.34,Wunderground v.1.15,2013-02-20 21:38:00,
2013-02-20 11:43:00,71.3,66.2,30.20,ESE,112,8.0,25.0,84,0.00,,,0.34,Wunderground v.1.15,2013-02-20 21:43:00,
2013-02-20 11:49:00,71.9,67.1,30.20,East,80,8.0,25.0,85,0.00,,,0.34,Wunderground v.1.15,2013-02-20 21:49:00,
2013-02-20 11:55:00,71.8,65.7,30.20,ENE,65,7.0,24.0,81,0.00,,,0.34,Wunderground v.1.15,2013-02-20 21:55:00,
2013-02-20 12:00:00,71.7,65.9,30.21,NE,37,7.0,7.0,82,0.00,,,0.34,Wunderground v.1.15,2013-02-20 22:00:00,
2013-02-20 12:05:00,71.8,65.7,30.20,East,93,6.0,21.0,81,0.00,,,0.34,Wunderground v.1.15,2013-02-20 22:05:00,
2013-02-20 12:11:00,72.5,67.4,30.20,East,98,6.0,7.0,84,0.00,,,0.34,Wunderground v.1.15,2013-02-20 22:11:00,
2013-02-20 12:16:00,72.5,66.7,30.20,NE,37,5.0,21.0,82,0.00,,,0.34,Wunderground v.1.15,2013-02-20 22:16:00,
2013-02-20 12:22:00,71.5,65.4,30.19,NNE,24,7.0,15.0,81,0.00,,,0.34,Wunderground v.1.15,2013-02-20 22:22:00,
2013-02-20 12:28:00,71.0,65.9,30.19,East,87,8.0,17.0,84,0.00,,,0.34,Wunderground v.1.15,2013-02-20 22:28:00,
2013-02-20 12:33:00,71.1,65.3,30.19,ENE,67,8.0,18.0,82,0.00,,,0.34,Wunderground v.1.15,2013-02-20 22:33:00,
2013-02-20 12:38:00,71.0,64.9,30.19,ENE,65,6.0,18.0,81,0.00,,,0.34,Wunderground v.1.15,2013-02-20 22:38:00,
2013-02-20 12:43:00,71.1,65.7,30.19,East,98,5.0,18.0,83,0.00,,,0.34,Wunderground v.1.15,2013-02-20 22:43:00,
2013-02-20 12:49:00,72.1,65.6,30.19,ESE,121,7.0,24.0,80,0.00,,,0.34,Wunderground v.1.15,2013-02-20 22:49:00,
2013-02-20 12:55:00,72.3,65.8,30.19,ESE,113,7.0,24.0,80,0.00,,,0.34,Wunderground v.1.15,2013-02-20 22:55:00,
2013-02-20 13:01:00,72.5,66.0,30.19,ENE,76,7.0,23.0,80,0.00,,,0.34,Wunderground v.1.15,2013-02-20 23:01:00,
2013-02-20 13:07:00,72.9,66.7,30.19,East,97,7.0,23.0,81,0.00,,,0.34,Wunderground v.1.15,2013-02-20 23:07:00,
2013-02-20 13:12:00,73.4,67.6,30.18,SE,141,6.0,23.0,82,0.00,,,0.34,Wunderground v.1.15,2013-02-20 23:12:00,
2013-02-20 13:18:00,72.3,66.1,30.18,ESE,120,6.0,23.0,81,0.00,,,0.34,Wunderground v.1.15,2013-02-20 23:18:00,
2013-02-20 13:24:00,71.6,66.5,30.18,East,87,6.0,16.0,84,0.00,,,0.34,Wunderground v.1.15,2013-02-20 23:24:00,
2013-02-20 13:29:00,72.4,66.6,30.18,ESE,111,7.0,18.0,82,0.00,,,0.34,Wunderground v.1.15,2013-02-20 23:29:00,
2013-02-20 13:35:00,71.9,66.8,30.18,East,90,6.0,24.0,84,0.15,,,0.36,Wunderground v.1.15,2013-02-20 23:35:00,
2013-02-20 13:41:00,70.5,65.8,30.18,South,169,6.0,24.0,85,0.06,,,0.36,Wunderground v.1.15,2013-02-20 23:41:00,
2013-02-20 13:46:00,69.7,66.0,30.18,East,98,7.0,24.0,88,0.04,,,0.36,Wunderground v.1.15,2013-02-20 23:46:00,
2013-02-20 13:53:00,69.4,66.0,30.17,East,96,4.0,22.0,89,0.00,,,0.36,Wunderground v.1.15,2013-02-20 23:53:00,
2013-02-20 13:58:00,70.0,67.3,30.17,SE,130,4.0,22.0,91,0.00,,,0.36,Wunderground v.1.15,2013-02-20 23:58:00,
2013-02-20 14:03:00,70.6,66.2,30.17,ESE,115,6.0,22.0,86,0.00,,,0.36,Wunderground v.1.15,2013-02-21 00:03:00,
2013-02-20 14:09:00,70.9,66.8,30.16,ESE,113,7.0,22.0,87,0.00,,,0.36,Wunderground v.1.15,2013-02-21 00:09:00,
2013-02-20 14:14:00,70.9,66.8,30.16,East,91,5.0,18.0,87,0.00,,,0.36,Wunderground v.1.15,2013-02-21 00:14:00,
2013-02-20 14:20:00,70.7,66.6,30.16,East,92,5.0,5.0,87,0.00,,,0.36,Wunderground v.1.15,2013-02-21 00:20:00,
2013-02-20 14:25:00,71.2,67.1,30.16,SSE,148,6.0,18.0,87,0.00,,,0.36,Wunderground v.1.15,2013-02-21 00:25:00,
2013-02-20 14:31:00,72.1,67.3,30.16,ENE,61,6.0,7.0,85,0.00,,,0.36,Wunderground v.1.15,2013-02-21 00:31:00,
2013-02-20 14:37:00,71.6,66.2,30.16,East,82,6.0,18.0,83,0.00,,,0.36,Wunderground v.1.15,2013-02-21 00:37:00,
2013-02-20 14:42:00,70.8,66.1,30.15,ESE,109,6.0,18.0,85,0.00,,,0.36,Wunderground v.1.15,2013-02-21 00:42:00,
2013-02-20 14:48:00,70.1,66.0,30.15,SE,130,6.0,18.0,87,0.00,,,0.36,Wunderground v.1.15,2013-02-21 00:48:00,
2013-02-20 14:54:00,71.0,66.3,30.15,SSE,159,6.0,18.0,85,0.00,,,0.36,Wunderground v.1.15,2013-02-21 00:54:00,
2013-02-20 14:59:00,71.4,66.3,30.15,South,170,7.0,18.0,84,0.00,,,0.36,Wunderground v.1.15,2013-02-21 00:59:00,
2013-02-20 15:04:00,72.0,66.6,30.15,East,84,7.0,21.0,83,0.00,,,0.36,Wunderground v.1.15,2013-02-21 01:04:00,
2013-02-20 15:10:00,71.7,65.6,30.16,SE,145,7.0,21.0,81,0.00,,,0.36,Wunderground v.1.15,2013-02-21 01:10:00,
2013-02-20 15:15:00,71.0,65.6,30.16,East,87,7.0,21.0,83,0.00,,,0.36,Wunderground v.1.15,2013-02-21 01:15:00,
2013-02-20 15:21:00,70.8,65.0,30.15,ESE,121,7.0,18.0,82,0.00,,,0.36,Wunderground v.1.15,2013-02-21 01:21:00,
2013-02-20 15:26:00,71.1,65.7,30.16,SE,142,7.0,18.0,83,0.00,,,0.36,Wunderground v.1.15,2013-02-21 01:26:00,
2013-02-20 15:32:00,71.1,65.3,30.16,ESE,108,6.0,20.0,82,0.00,,,0.36,Wunderground v.1.15,2013-02-21 01:32:00,
2013-02-20 15:38:00,71.3,65.5,30.16,SSE,154,6.0,20.0,82,0.00,,,0.36,Wunderground v.1.15,2013-02-21 01:38:00,
2013-02-20 15:44:00,71.9,65.8,30.15,ENE,69,7.0,20.0,81,0.00,,,0.36,Wunderground v.1.15,2013-02-21 01:44:00,
2013-02-20 15:49:00,72.6,65.7,30.15,East,98,7.0,20.0,79,0.00,,,0.36,Wunderground v.1.15,2013-02-21 01:49:00,
2013-02-20 15:55:00,72.5,65.2,30.15,East,96,7.0,19.0,78,0.00,,,0.36,Wunderground v.1.15,2013-02-21 01:55:00,
2013-02-20 16:01:00,71.7,64.8,30.15,ESE,102,7.0,19.0,79,0.00,,,0.36,Wunderground v.1.15,2013-02-21 02:01:00,
2013-02-20 16:06:00,71.8,65.3,30.15,SE,126,7.0,19.0,80,0.00,,,0.36,Wunderground v.1.15,2013-02-21 02:06:00,
2013-02-20 16:11:00,71.9,64.3,30.15,East,93,8.0,19.0,77,0.00,,,0.36,Wunderground v.1.15,2013-02-21 02:11:00,
2013-02-20 16:17:00,71.5,64.3,30.15,SSE,153,7.0,21.0,78,0.00,,,0.36,Wunderground v.1.15,2013-02-21 02:17:00,
2013-02-20 16:22:00,71.7,64.8,30.15,ESE,121,7.0,21.0,79,0.00,,,0.36,Wunderground v.1.15,2013-02-21 02:22:00,
2013-02-20 16:28:00,72.2,65.3,30.15,SSE,149,6.0,21.0,79,0.00,,,0.36,Wunderground v.1.15,2013-02-21 02:28:00,
2013-02-20 16:33:00,72.8,65.5,30.15,ESE,115,6.0,21.0,78,0.00,,,0.36,Wunderground v.1.15,2013-02-21 02:33:00,
2013-02-20 16:38:00,72.8,65.5,30.15,ENE,74,6.0,21.0,78,0.00,,,0.36,Wunderground v.1.15,2013-02-21 02:38:00,
2013-02-20 16:44:00,72.1,64.9,30.15,ENE,78,5.0,19.0,78,0.00,,,0.36,Wunderground v.1.15,2013-02-21 02:44:00,
2013-02-20 16:50:00,71.3,64.4,30.16,ESE,109,5.0,18.0,79,0.00,,,0.36,Wunderground v.1.15,2013-02-21 02:50:00,
2013-02-20 16:55:00,70.8,65.0,30.15,ESE,111,5.0,18.0,82,0.00,,,0.37,Wunderground v.1.15,2013-02-21 02:55:00,
2013-02-20 17:01:00,70.4,64.6,30.15,ESE,111,6.0,18.0,82,0.00,,,0.37,Wunderground v.1.15,2013-02-21 03:01:00,
2013-02-20 17:06:00,70.0,64.6,30.15,ESE,121,7.0,19.0,83,0.00,,,0.37,Wunderground v.1.15,2013-02-21 03:06:00,
2013-02-20 17:11:00,69.7,64.3,30.15,ESE,104,6.0,19.0,83,0.00,,,0.37,Wunderground v.1.15,2013-02-21 03:11:00,
2013-02-20 17:17:00,69.5,64.5,30.15,ESE,110,4.0,19.0,84,0.00,,,0.37,Wunderground v.1.15,2013-02-21 03:17:00,
2013-02-20 17:23:00,69.2,64.2,30.16,East,90,3.0,14.0,84,0.00,,,0.37,Wunderground v.1.15,2013-02-21 03:23:00,
2013-02-20 17:28:00,69.1,64.1,30.16,East,92,4.0,14.0,84,0.00,,,0.37,Wunderground v.1.15,2013-02-21 03:28:00,
2013-02-20 17:33:00,69.0,63.6,30.16,ESE,118,6.0,15.0,83,0.00,,,0.37,Wunderground v.1.15,2013-02-21 03:33:00,
2013-02-20 17:39:00,69.1,63.4,30.16,ENE,78,6.0,15.0,82,0.00,,,0.37,Wunderground v.1.15,2013-02-21 03:39:00,
2013-02-20 17:44:00,69.0,63.6,30.16,SE,137,6.0,15.0,83,0.00,,,0.37,Wunderground v.1.15,2013-02-21 03:44:00,
2013-02-20 17:50:00,69.0,63.6,30.16,ESE,113,5.0,5.0,83,0.00,,,0.37,Wunderground v.1.15,2013-02-21 03:50:00,
2013-02-20 17:56:00,68.9,63.5,30.16,SSE,154,5.0,17.0,83,0.00,,,0.37,Wunderground v.1.15,2013-02-21 03:56:00,
2013-02-20 18:01:00,68.8,63.4,30.16,ENE,64,5.0,17.0,83,0.00,,,0.37,Wunderground v.1.15,2013-02-21 04:01:00,
2013-02-20 18:07:00,68.7,63.3,30.17,SE,134,5.0,17.0,83,0.00,,,0.37,Wunderground v.1.15,2013-02-21 04:07:00,
2013-02-20 18:13:00,68.7,63.3,30.17,SE,127,5.0,15.0,83,0.00,,,0.37,Wunderground v.1.15,2013-02-21 04:13:00,
2013-02-20 18:19:00,68.6,63.2,30.17,ESE,122,5.0,18.0,83,0.00,,,0.37,Wunderground v.1.15,2013-02-21 04:19:00,
2013-02-20 18:24:00,68.6,63.2,30.18,ESE,114,5.0,18.0,83,0.00,,,0.37,Wunderground v.1.15,2013-02-21 04:24:00,
2013-02-20 18:30:00,68.4,62.7,30.18,East,93,5.0,5.0,82,0.00,,,0.37,Wunderground v.1.15,2013-02-21 04:30:00,
2013-02-20 18:36:00,68.3,62.6,30.18,SSE,148,5.0,13.0,82,0.00,,,0.37,Wunderground v.1.15,2013-02-21 04:36:00,
2013-02-20 18:41:00,68.2,62.8,30.18,SSE,148,4.0,13.0,83,0.00,,,0.37,Wunderground v.1.15,2013-02-21 04:41:00,
2013-02-20 18:47:00,68.1,62.7,30.18,SSE,157,5.0,14.0,83,0.00,,,0.37,Wunderground v.1.15,2013-02-21 04:47:00,
2013-02-20 18:52:00,68.1,62.7,30.19,SE,126,6.0,14.0,83,0.00,,,0.37,Wunderground v.1.15,2013-02-21 04:52:00,
2013-02-20 18:58:00,68.0,62.6,30.18,SE,142,5.0,14.0,83,0.00,,,0.37,Wunderground v.1.15,2013-02-21 04:58:00,
2013-02-20 19:00:00,67.9,62.5,30.19,SE,126,5.0,14.0,83,0.00,,,0.37,Wunderground v.1.15,2013-02-21 05:00:00,
2013-02-20 19:01:00,67.9,62.5,30.19,SE,130,5.0,14.0,83,0.00,,,0.37,Wunderground v.1.15,2013-02-21 05:01:00,
2013-02-20 19:02:00,67.9,62.5,30.19,SE,130,5.0,14.0,83,0.00,,,0.37,Wunderground v.1.15,2013-02-21 05:02:00,
2013-02-20 19:04:00,67.8,62.8,30.19,SE,144,4.0,14.0,84,0.00,,,0.37,Wunderground v.1.15,2013-02-21 05:04:00,
2013-02-20 19:10:00,67.7,62.7,30.19,SE,130,4.0,13.0,84,0.00,,,0.37,Wunderground v.1.15,2013-02-21 05:10:00,
2013-02-20 19:15:00,67.6,62.6,30.19,SSE,153,5.0,13.0,84,0.00,,,0.37,Wunderground v.1.15,2013-02-21 05:15:00,
2013-02-20 19:21:00,67.5,62.5,30.19,SE,136,5.0,13.0,84,0.00,,,0.37,Wunderground v.1.15,2013-02-21 05:21:00,
2013-02-20 19:26:00,67.5,62.5,30.19,East,98,6.0,16.0,84,0.00,,,0.37,Wunderground v.1.15,2013-02-21 05:26:00,
2013-02-20 19:32:00,67.4,62.4,30.19,SE,126,6.0,16.0,84,0.00,,,0.37,Wunderground v.1.15,2013-02-21 05:32:00,
2013-02-20 19:38:00,67.4,62.4,30.19,ESE,103,5.0,16.0,84,0.00,,,0.37,Wunderground v.1.15,2013-02-21 05:38:00,
2013-02-20 19:43:00,67.4,62.1,30.19,SSE,159,6.0,16.0,83,0.00,,,0.37,Wunderground v.1.15,2013-02-21 05:43:00,
2013-02-20 19:49:00,67.6,62.3,30.20,SSE,154,6.0,17.0,83,0.00,,,0.37,Wunderground v.1.15,2013-02-21 05:49:00,
2013-02-20 19:55:00,67.5,62.2,30.20,SSE,157,5.0,17.0,83,0.00,,,0.37,Wunderground v.1.15,2013-02-21 05:55:00,
2013-02-20 20:00:00,67.4,62.1,30.20,SE,142,5.0,5.0,83,0.00,,,0.37,Wunderground v.1.15,2013-02-21 06:00:00,
2013-02-20 20:05:00,67.4,62.1,30.20,South,171,5.0,11.0,83,0.00,,,0.37,Wunderground v.1.15,2013-02-21 06:05:00,
2013-02-20 20:11:00,67.3,62.0,30.20,SSE,157,5.0,6.0,83,0.00,,,0.37,Wunderground v.1.15,2013-02-21 06:11:00,
2013-02-20 20:16:00,67.3,62.0,30.20,ESE,120,6.0,12.0,83,0.00,,,0.37,Wunderground v.1.15,2013-02-21 06:16:00,
2013-02-20 20:22:00,67.4,62.1,30.20,SSE,154,6.0,13.0,83,0.00,,,0.37,Wunderground v.1.15,2013-02-21 06:22:00,
2013-02-20 20:27:00,67.4,62.1,30.20,SE,126,6.0,13.0,83,0.00,,,0.37,Wunderground v.1.15,2013-02-21 06:27:00,
2013-02-20 20:33:00,67.4,62.1,30.21,SSE,155,7.0,17.0,83,0.00,,,0.37,Wunderground v.1.15,2013-02-21 06:33:00,
2013-02-20 20:39:00,67.5,62.2,30.21,SE,141,6.0,17.0,83,0.00,,,0.37,Wunderground v.1.15,2013-02-21 06:39:00,
2013-02-20 20:44:00,67.6,62.3,30.21,SSE,151,5.0,17.0,83,0.00,,,0.37,Wunderground v.1.15,2013-02-21 06:44:00,
2013-02-20 20:50:00,67.6,62.3,30.21,SE,136,4.0,4.0,83,0.00,,,0.37,Wunderground v.1.15,2013-02-21 06:50:00,
2013-02-20 20:56:00,67.5,62.5,30.21,SE,135,4.0,13.0,84,0.00,,,0.37,Wunderground v.1.15,2013-02-21 06:56:00,
2013-02-20 21:01:00,67.5,62.5,30.21,ESE,113,5.0,13.0,84,0.00,,,0.37,Wunderground v.1.15,2013-02-21 07:01:00,
2013-02-20 21:06:00,67.4,62.4,30.21,SE,138,5.0,13.0,84,0.00,,,0.37,Wunderground v.1.15,2013-02-21 07:06:00,
2013-02-20 21:12:00,67.3,62.3,30.21,SE,136,5.0,10.0,84,0.00,,,0.37,Wunderground v.1.15,2013-02-21 07:12:00,
2013-02-20 21:18:00,67.2,62.5,30.22,SSE,153,6.0,12.0,85,0.00,,,0.37,Wunderground v.1.15,2013-02-21 07:18:00,
2013-02-20 21:23:00,67.2,62.5,30.22,SSE,157,6.0,12.0,85,0.00,,,0.37,Wunderground v.1.15,2013-02-21 07:23:00,
2013-02-20 21:28:00,67.2,62.5,30.22,SE,135,6.0,12.0,85,0.00,,,0.37,Wunderground v.1.15,2013-02-21 07:28:00,
2013-02-20 21:33:00,67.3,62.6,30.22,SSE,150,7.0,14.0,85,0.00,,,0.37,Wunderground v.1.15,2013-02-21 07:33:00,
2013-02-20 21:39:00,67.3,62.6,30.22,SSE,150,6.0,14.0,85,0.00,,,0.37,Wunderground v.1.15,2013-02-21 07:39:00,
2013-02-20 21:45:00,67.4,62.4,30.22,SE,128,6.0,14.0,84,0.00,,,0.37,Wunderground v.1.15,2013-02-21 07:45:00,
2013-02-20 21:50:00,67.3,62.3,30.22,ESE,120,6.0,13.0,84,0.00,,,0.37,Wunderground v.1.15,2013-02-21 07:50:00,
2013-02-20 21:56:00,67.3,62.3,30.22,SSE,163,6.0,13.0,84,0.00,,,0.37,Wunderground v.1.15,2013-02-21 07:56:00,
2013-02-20 22:01:00,67.3,62.3,30.22,SE,138,6.0,14.0,84,0.00,,,0.37,Wunderground v.1.15,2013-02-21 08:01:00,
2013-02-20 22:07:00,67.4,62.4,30.22,ESE,105,7.0,14.0,84,0.00,,,0.37,Wunderground v.1.15,2013-02-21 08:07:00,
2013-02-20 22:13:00,67.5,62.5,30.21,SSE,151,6.0,14.0,84,0.00,,,0.37,Wunderground v.1.15,2013-02-21 08:13:00,
2013-02-20 22:19:00,67.6,62.9,30.21,SE,145,5.0,15.0,85,0.00,,,0.37,Wunderground v.1.15,2013-02-21 08:19:00,
2013-02-20 22:24:00,67.5,63.2,30.21,SE,138,6.0,15.0,86,0.00,,,0.37,Wunderground v.1.15,2013-02-21 08:24:00,
2013-02-20 22:30:00,67.2,62.9,30.21,SE,146,6.0,6.0,86,0.00,,,0.37,Wunderground v.1.15,2013-02-21 08:30:00,
2013-02-20 22:36:00,67.1,63.1,30.21,SE,133,6.0,13.0,87,0.00,,,0.37,Wunderground v.1.15,2013-02-21 08:36:00,
2013-02-20 22:41:00,67.1,63.1,30.21,SE,124,6.0,12.0,87,0.00,,,0.37,Wunderground v.1.15,2013-02-21 08:41:00,
2013-02-20 22:47:00,67.1,62.8,30.21,SE,133,6.0,14.0,86,0.00,,,0.37,Wunderground v.1.15,2013-02-21 08:47:00,
2013-02-20 22:53:00,67.2,62.9,30.20,East,86,6.0,14.0,86,0.00,,,0.37,Wunderground v.1.15,2013-02-21 08:53:00,
2013-02-20 22:58:00,67.3,63.0,30.20,SE,136,5.0,14.0,86,0.00,,,0.37,Wunderground v.1.15,2013-02-21 08:58:00,
2013-02-20 23:03:00,67.3,62.6,30.20,SE,138,6.0,14.0,85,0.00,,,0.37,Wunderground v.1.15,2013-02-21 09:03:00,
2013-02-20 23:09:00,67.4,62.7,30.20,SE,146,6.0,14.0,85,0.00,,,0.37,Wunderground v.1.15,2013-02-21 09:09:00,
2013-02-20 23:14:00,67.4,62.7,30.20,SW,215,5.0,13.0,85,0.00,,,0.37,Wunderground v.1.15,2013-02-21 09:14:00,
2013-02-20 23:20:00,67.5,62.8,30.20,SE,139,6.0,6.0,85,0.00,,,0.37,Wunderground v.1.15,2013-02-21 09:20:00,
2013-02-20 23:26:00,67.6,63.3,30.21,ESE,118,6.0,15.0,86,0.00,,,0.37,Wunderground v.1.15,2013-02-21 09:26:00,
2013-02-20 23:31:00,67.5,63.5,30.21,SE,127,6.0,17.0,87,0.00,,,0.38,Wunderground v.1.15,2013-02-21 09:31:00,
2013-02-20 23:37:00,67.3,63.6,30.21,ESE,106,5.0,17.0,88,0.00,,,0.38,Wunderground v.1.15,2013-02-21 09:37:00,
2013-02-20 23:43:00,66.9,63.2,30.21,ESE,105,4.0,17.0,88,0.00,,,0.38,Wunderground v.1.15,2013-02-21 09:43:00,
2013-02-20 23:48:00,66.6,62.9,30.21,SE,138,4.0,17.0,88,0.00,,,0.38,Wunderground v.1.15,2013-02-21 09:48:00,
2013-02-20 23:54:00,66.5,62.8,30.21,SE,140,4.0,9.0,88,0.00,,,0.38,Wunderground v.1.15,2013-02-21 09:54:00,